Regional Weather Roundup
Issued by NWS Newport/Morehead, NC

Home | Current Version | Previous Version | Text Only | Print | Product List | Glossary On
Versions: 1 2 3 4 5 6 7 8 9 10 11 12 13 14 15 16 17 18 19 20 21 22 23 24 25 26 27 28 29 30 31 32 33 34 35 36 37 38 39 40 41 42 43 44 45 46 47 48 49 50
845
ASUS42 KMHX 090325
RWRMHX
WEATHER ROUNDUP FOR EASTERN NORTH CAROLINA
NATIONAL WEATHER SERVICE NEWPORT/MOREHEAD CITY NC
1000 PM EST MON FEB 08 2016

NOTE: "FAIR" INDICATES FEW OR NO CLOUDS BELOW 12,000 FEET
WITH NO SIGNIFICANT WEATHER AND/OR OBSTRUCTIONS TO VISIBILITY

NCZ015>017-031-032-045>047-102-103-090400-
NORTH COAST

CITY           SKY/WX    TMP DP  RH WIND       PRES   REMARKS
EDENTON        CLOUDY    44  39  82 CALM      29.67F
ELIZABETH CITY CLOUDY    42  37  82 E7        29.66F
KITTY HAWK     PTCLDY    42  37  80 E6        29.66F HAZE
MANTEO         PTCLDY    42  38  86 E8        29.66F

$$

NCZ045>047-081-094-103-104-090400-
CENTRAL COAST

CITY           SKY/WX    TMP DP  RH WIND       PRES   REMARKS
FRISCO         CLEAR     39  34  82 CALM      29.66F
SWANQUARTER      N/A     46 N/A N/A W9G22     29.65S

$$

NCZ095-097-098-100-101-090400-
SOUTHERN COAST

CITY           SKY/WX    TMP DP  RH WIND       PRES   REMARKS
BEAUFORT       PTCLDY    45  37  73 NW25G31   29.71R
CEDAR ISLAND     N/A     45 N/A N/A NW8G26    29.74R
JACKSONVILLE   CLOUDY    44  38  79 CALM      29.68F
PINEY ISLAND   CLEAR    N/A N/A N/A W22G30    29.68R
WILMINGTON     CLOUDY    46  41  82 W5        29.68F


$$

NCZ011>013-027>030-043-044-078>080-089-090>093-098-090400-
COASTAL PLAIN

CITY           SKY/WX    TMP DP  RH WIND       PRES   REMARKS
AHOSKIE        DRIZZLE   40  37  90 CALM      29.67F
CLINTON        PTCLDY    40  40 100 CALM      29.69F
ELIZABETHTOWN  MOCLDY    43  42  95 CALM      29.68F
GOLDSBORO      CLOUDY    41  41 100 S2        29.66F
GREENVILLE     CLOUDY    41  41 100 SW3       29.71F
HAVELOCK       CLOUDY    46  37  71 W16       29.72R
KENANSVILLE    PTCLDY    40  40 100 CALM      29.69F
KINSTON        CLOUDY    41  40  97 CALM      29.69F
NEW BERN       CLOUDY    45  36  70 W12G18    29.73R
RICHLANDS      CLOUDY    41  36  81 CALM      29.68F
ROCKY MOUNT    CLOUDY    42  41  96 CALM      29.68S
WASHINGTON     LGT RAIN  42  39  88 CALM      29.68F
WHITEVILLE     CLOUDY    44  42  93 S5        29.69S

$$

AMZ130-135-150-152-154-156-158-170-250-252-270-ANZ085-086-088-633-658-670-090400-
MARINE OBSERVATIONS

STATION/POSITION TIME  TEMP    WIND        PRES    WAVE   SWELL
                       AIR SEA DIR/SP/G            HT/PER HT/PER
                 (UTC) (F)     (DEG/KT/KT) (MB)    (FT/S) (FT/S)
CHESAPEAKE LIGHT 0300   44     120/ 17/ 18 1005.6
64 E VA BEACH    0250   47 52  110/  6/ 12 1005.6   13/14  13/14
DUCK             0300   44     100/ 12/ 12 1003.9
2 E DUCK         0211      44                N/A    11/15  10/15
OREGON INLET     0300   44 45   70/  9/ 12 1004.3
13E OREGON INLT  0300      47                N/A    14/15  13/15
HATTERAS CG      0300   44 52   50/  2/  3 1003.7
DIAMOND BUOY     0250   54 74  330/ 10/ 14 1004.3   10/16  10/16
CAPE LOOKOUT     NOT AVBL
BEAUFORT LAB     0300   46 47  300/ 12/ 20 1004.9
30 SE NEW RVR IN 0308   50 61              1004.5
30 SE NEW RVR IN 0225      61                N/A     8/ 6   3/13
27 SE WRIGHTSVLE 0208   52 60  360/ 23/ 31 1005.0
5 SE WRIGHTSVLE  0208   48 52  310/ 17/ 25 1006.3
225 S CAPE HAT   0250   64 69  250/ 25/ 33   N/A    11/11   8/11
41 SE CHARLESTON 0250   53 65  280/ 25/ 31 1005.8    8/ 7   3/16

$$




USA.gov is the U.S. government's official web portal to all federal, state and local government web resources and services.